Theta_e
318 319 320 321 322 325 334 326 334 331 335 332 335 333 332 338 335 335 336 333 335 338 337 340 341 343 341 342 342 341 339 338 336 335 336 334 332 332 334 342 339 339 342 345
319 318 319 323 323 330 335 336 337 337 338 334 332 330 332 333 332 334 336 341 342 340 338 340 340 340 339 339 339 342 344 344 341 338 336 335 334 333 338 341 341 339 335 334
316 317 323 325 327 333 334 336 336 340 334 333 335 333 332 330 330 332 333 338 337 339 338 339 338 340 341 341 342 342 342 340 340 340 340 339 337 335 336 338 339 335 335 335
317 324 331 325 332 333 335 338 336 338 337 335 332 331 330 329 330 331 333 336 337 335 336 336 337 338 339 340 341 341 341 340 339 338 338 338 339 338 338 339 338 337 338 337
322 328 329 334 332 335 335 334 336 335 332 330 329 329 328 330 330 330 333 333 334 336 333 332 333 335 334 336 336 336 336 339 340 340 339 337 335 335 336 337 337 337 338 340
331 335 337 331 334 333 332 335 333 332 332 329 327 329 328 329 332 333 333 332 332 331 330 329 329 330 331 332 333 332 331 333 336 338 339 340 339 336 336 336 338 337 340 341
332 335 335 332 334 333 336 329 332 331 328 329 329 326 326 332 332 332 331 330 331 329 328 327 327 328 327 327 327 329 333 331 331 333 335 337 339 339 339 339 339 339 338 340
329 332 332 332 335 334 327 328 332 331 328 329 328 329 329 330 332 331 330 329 329 328 328 327 326 326 325 325 326 326 326 327 332 331 332 333 336 336 338 339 338 338 338 339
328 330 326 325 330 329 329 331 333 331 330 328 330 331 330 331 332 331 331 329 329 329 328 328 327 326 325 325 325 325 325 325 327 331 326 331 330 331 334 334 335 335 334 335
327 327 326 326 330 329 331 330 329 329 330 330 331 330 329 330 330 330 329 329 329 328 327 327 327 326 325 325 324 324 324 323 324 324 324 325 331 331 330 330 330 329 329 329
324 323 322 322 324 329 330 329 330 328 330 329 329 328 328 328 328 328 328 328 328 327 327 327 327 325 323 323 324 323 322 322 322 323 324 323 322 323 329 330 331 329 329 328
323 318 321 323 326 329 327 326 328 328 327 329 329 328 328 329 327 328 328 328 327 327 326 327 327 327 324 324 322 321 322 321 320 321 322 323 322 321 328 330 331 331 330 329
319 320 318 324 328 325 324 324 326 327 327 329 330 329 329 327 327 328 328 327 325 326 327 328 326 326 324 322 320 321 321 320 321 322 322 322 322 321 321 330 331 330 330 329
313 322 330 328 328 326 324 327 325 325 325 325 328 330 329 328 327 327 327 326 327 327 325 323 325 324 322 319 319 321 320 320 321 324 324 325 325 324 322 321 321 323 329 329
324 323 324 324 323 323 324 325 326 326 325 325 328 329 328 325 325 326 327 326 326 325 323 322 323 323 321 318 321 320 318 319 321 323 324 325 327 328 326 322 321 322 327 328
322 323 324 324 323 324 325 325 325 327 326 324 323 325 327 327 326 326 326 325 324 323 325 324 323 323 319 319 320 321 320 318 318 321 322 322 325 326 327 328 328 327 327 327
325 326 323 323 323 322 323 322 324 325 326 324 323 324 325 326 325 325 325 324 326 326 325 325 323 321 319 319 320 320 320 319 316 316 316 320 321 325 326 325 324 326 326 325
322 321 320 320 321 323 323 322 324 325 324 324 325 325 324 323 322 323 325 325 326 326 324 323 321 319 318 318 320 321 321 320 314 313 313 315 316 319 324 323 322 324 325 325
322 324 323 321 322 321 322 323 323 323 324 325 324 323 324 324 325 325 326 325 324 323 323 324 323 319 318 317 316 319 320 317 315 314 313 313 314 316 319 323 322 322 324 324
323 321 322 323 323 324 324 324 324 323 323 325 322 322 323 324 324 321 322 322 322 323 322 325 322 318 318 317 318 320 319 317 315 313 313 313 313 314 317 319 322 322 322 322
321 322 322 323 326 326 325 325 324 324 323 323 321 322 323 321 321 321 321 318 321 324 324 325 321 319 318 318 317 317 317 315 312 312 312 312 312 313 315 318 318 321 321 321
323 323 324 324 325 324 324 322 322 322 323 322 321 321 321 321 323 323 322 321 322 324 324 323 320 318 319 320 318 317 315 313 312 316 316 315 315 314 314 315 317 317 321 321
318 319 320 321 322 322 323 322 321 322 321 321 322 321 321 322 323 321 318 322 323 322 323 320 319 319 320 321 320 319 316 314 317 317 316 316 315 313 313 314 315 316 318 321
317 316 317 320 320 320 320 320 321 320 322 322 322 323 321 320 319 320 321 322 321 321 320 320 320 319 318 318 318 318 318 318 317 316 317 317 316 315 313 313 314 315 316 319
317 317 319 319 319 319 320 320 318 318 318 318 319 319 320 320 319 317 317 317 317 317 317 316 315 315 315 315 315 316 316 317 317 317 316 317 316 317 317 316 315 315 317 319
317 318 318 320 320 319 319 319 319 316 316 317 318 319 319 318 317 317 316 316 315 316 315 314 313 313 313 314 315 316 316 316 316 315 314 314 315 316 316 316 315 313 313 313
319 318 319 319 319 319 318 319 318 318 317 319 317 314 313 311 312 314 317 315 313 311 308 308 310 310 311 310 311 312 313 312 312 312 311 311 313 313 313 313 312 312 311 309
Wind_Speed
6 6 5 7 9 8 5 6 5 5 6 7 6 7 7 5 5 8 7 7 7 6 6 9 11 7 3 9 13 18 31 16 20 26 29 24 19 18 18 22 23 23 23 31
4 8 7 5 11 8 7 5 7 6 8 6 5 6 6 4 5 6 10 8 5 5 7 6 11 9 7 7 9 7 2 4 3 9 17 14 17 18 22 26 26 26 25 22
5 3 6 6 6 5 3 4 4 5 6 4 8 7 6 5 6 6 9 8 3 2 3 7 10 8 10 11 14 12 10 5 5 6 5 9 16 25 27 30 26 21 21 18
3 2 3 6 3 2 4 6 6 6 7 5 7 6 5 3 5 9 8 7 3 4 7 11 9 12 14 15 18 20 15 13 7 1 4 9 12 15 19 22 26 25 23 26
4 4 4 3 3 2 1 7 6 5 5 4 6 4 4 3 6 7 4 7 3 9 14 13 14 12 14 13 13 15 14 13 10 6 4 5 7 9 11 13 16 22 21 25
2 2 2 4 1 2 2 5 5 4 3 4 5 4 4 8 12 3 2 1 9 14 15 14 14 14 18 17 15 15 11 10 8 11 10 7 7 11 8 12 13 19 16 19
2 3 5 5 3 3 1 6 3 3 3 5 3 4 4 7 8 7 7 5 13 16 13 10 12 16 18 16 15 12 10 12 15 12 11 9 8 6 6 4 2 1 2 1
0 2 5 1 3 5 7 4 4 4 4 5 4 6 4 5 2 3 3 9 13 12 8 10 12 16 16 15 13 15 16 14 12 14 14 14 9 7 7 6 5 4 2 4
7 5 5 5 6 5 3 7 4 3 4 5 5 4 5 5 5 6 8 10 10 10 7 7 8 11 12 12 14 15 19 20 17 12 14 12 12 8 10 10 10 9 10 10
2 4 7 6 7 7 3 5 7 2 4 4 4 5 6 1 1 5 7 6 8 9 7 5 6 10 11 12 13 15 16 16 17 14 13 12 8 7 8 7 8 8 7 6
5 8 6 9 8 9 7 6 5 3 2 5 4 7 4 3 1 2 7 6 7 6 6 4 3 5 9 10 13 14 14 15 16 14 10 11 10 9 2 2 3 3 3 3
5 6 5 7 7 4 3 4 4 1 5 5 4 3 3 4 4 5 7 6 6 6 5 4 5 6 6 9 12 13 16 17 18 16 13 11 11 12 2 3 0 3 3 2
7 5 8 5 2 3 1 1 1 5 5 6 3 3 1 0 3 7 6 6 4 5 4 4 5 4 6 9 14 10 11 15 18 16 12 10 8 7 6 2 5 7 7 7
11 5 4 4 4 6 5 5 4 5 6 2 2 1 5 4 4 5 4 2 3 4 4 3 3 2 4 10 7 9 10 14 17 15 12 13 12 7 6 7 7 7 8 10
6 6 4 7 7 6 6 5 3 1 5 6 3 3 6 5 5 3 3 3 5 4 2 2 1 2 3 6 7 9 10 12 13 12 10 9 9 10 7 4 9 8 6 4
4 4 5 6 7 7 7 7 5 1 6 5 7 4 6 4 2 4 3 4 2 2 6 6 5 2 6 6 5 8 9 10 13 10 11 13 10 9 8 7 5 3 5 5
2 2 4 5 8 2 2 3 2 6 6 3 5 14 8 9 5 6 5 2 2 4 5 4 3 5 8 6 8 10 10 10 12 11 12 11 12 9 8 7 9 10 8 7
6 6 3 3 3 4 4 4 6 6 3 5 13 7 4 6 4 6 7 4 3 5 4 4 4 6 5 5 6 9 11 12 13 13 12 14 16 12 12 10 10 10 11 9
6 7 2 3 4 5 2 1 4 1 5 11 12 3 4 8 7 4 2 4 4 7 9 5 4 7 9 10 9 9 8 11 14 16 17 17 19 17 15 15 14 13 13 14
4 8 5 2 3 1 2 3 4 3 7 8 7 2 5 2 2 3 3 4 9 12 13 7 6 6 8 11 8 8 10 13 16 20 21 21 18 22 18 18 20 18 15 16
7 8 4 2 2 1 1 3 5 11 14 13 3 2 2 1 2 5 6 4 13 16 9 5 7 9 12 14 13 14 14 15 18 22 22 21 22 25 20 21 21 23 22 19
5 5 2 3 5 8 5 9 2 6 4 1 1 1 3 5 7 7 4 7 17 18 10 6 8 9 11 14 16 17 16 16 16 17 19 20 21 23 20 20 25 24 28 25
3 3 5 4 1 6 9 15 16 11 6 6 3 0 2 5 5 6 6 12 14 12 8 9 12 13 15 17 16 15 13 11 13 14 16 18 20 21 17 16 20 24 28 28
6 11 10 5 8 14 7 13 12 9 6 3 8 9 7 6 7 12 10 11 9 10 9 10 11 12 13 14 14 13 12 12 12 11 12 12 13 14 15 19 21 21 24 25
6 10 14 14 12 9 11 15 11 8 10 15 13 12 12 12 13 13 13 13 13 12 12 12 14 15 15 16 16 16 17 16 15 18 19 18 19 17 13 16 20 23 23 20
6 7 7 10 12 13 21 18 11 17 17 13 15 14 15 13 11 11 10 11 11 14 15 16 18 18 17 18 18 18 18 18 16 17 17 18 18 17 17 15 15 20 22 18
7 9 11 9 7 11 13 5 4 7 5 10 15 14 14 14 14 13 12 12 13 14 16 18 18 17 16 16 16 15 14 16 18 17 18 18 17 15 16 16 18 19 19 19
Wind_Direction
231 239 222 233 263 293 240 220 191 244 231 265 279 282 276 281 318 325 311 290 292 316 325 329 323 287 55 27 62 146 149 161 189 172 165 179 207 203 210 234 241 248 248 231
255 264 258 263 286 254 241 236 262 274 285 219 258 277 292 340 337 311 309 288 274 326 320 332 332 6 29 50 28 80 199 308 9 155 151 185 207 206 211 235 245 243 234 227
259 282 341 319 250 212 248 220 203 239 239 320 304 276 283 298 291 288 296 282 237 4 304 11 342 1 25 41 64 66 62 64 69 76 141 206 210 209 227 232 241 229 241 247
258 43 244 259 345 230 245 249 228 276 276 309 290 283 260 268 281 297 308 319 33 25 32 19 40 53 69 63 58 65 63 51 39 21 213 212 215 221 232 239 245 236 253 255
166 188 286 293 290 280 278 284 217 243 296 312 320 329 292 259 285 265 270 302 21 54 50 49 44 60 73 64 55 58 59 66 72 105 187 205 215 225 230 232 238 228 242 246
115 163 255 231 213 295 89 289 237 233 300 298 353 355 278 324 344 24 6 332 90 74 63 52 57 71 70 58 49 39 29 33 54 75 74 88 193 212 209 235 239 241 237 222
212 185 267 260 141 153 43 245 277 213 242 254 247 210 280 324 6 39 93 79 90 76 64 48 44 56 55 49 37 34 35 43 44 47 52 64 93 147 200 194 186 79 74 19
111 48 285 183 122 169 217 271 254 234 205 241 250 280 276 285 30 18 96 95 98 93 80 64 53 51 42 34 35 48 52 47 44 44 50 56 58 76 108 132 141 134 146 86
179 221 209 280 243 282 219 228 244 224 179 208 237 260 287 278 159 195 191 146 128 116 102 71 59 53 47 31 35 40 45 39 44 38 33 43 44 42 80 91 98 93 87 92
340 293 247 248 269 257 252 258 290 329 262 216 253 299 290 286 246 182 149 158 141 134 117 80 57 44 37 34 35 42 45 38 33 27 26 32 32 3 47 74 83 79 80 89
255 285 291 267 235 247 272 275 299 328 286 280 286 304 228 144 249 130 155 157 137 119 98 91 71 49 42 35 30 33 36 30 26 30 32 34 18 351 250 88 34 50 75 89
233 249 217 253 241 153 221 258 267 12 336 311 240 281 262 181 173 170 157 129 113 84 68 42 33 17 32 19 18 25 26 22 18 20 27 25 9 11 128 188 231 283 277 283
274 266 224 274 41 86 245 322 22 354 350 325 334 154 351 341 112 148 142 162 127 107 60 15 9 39 21 11 4 21 24 19 18 18 16 16 4 3 359 274 262 260 254 245
245 200 224 166 182 151 143 102 48 355 348 302 292 135 157 145 140 155 176 182 146 136 104 62 54 66 10 355 9 18 19 23 21 32 44 20 6 340 259 254 258 258 240 241
290 211 209 135 132 148 144 129 117 45 19 12 49 250 179 163 167 197 156 116 147 161 164 220 214 223 340 3 19 20 22 26 24 35 37 18 28 34 19 288 258 255 233 249
2 117 145 146 156 162 156 144 125 209 76 307 357 321 268 242 189 162 201 222 235 313 330 296 307 324 352 10 12 12 22 26 25 10 4 359 359 13 28 29 358 300 278 264
146 181 170 193 192 135 27 5 225 167 148 124 323 337 251 181 212 237 244 231 283 315 332 317 316 352 358 351 354 359 2 3 3 1 2 343 340 331 336 333 322 305 285 267
254 269 262 6 133 110 145 193 230 214 156 21 344 319 269 256 241 274 285 304 324 305 316 312 315 335 337 332 318 330 336 345 348 338 329 344 322 300 286 292 303 296 290 276
347 326 75 133 153 134 151 347 281 209 15 347 337 263 239 245 255 289 268 264 283 297 321 298 277 299 302 318 304 291 306 322 329 331 323 317 321 318 273 269 273 273 270 267
320 5 30 178 138 189 229 266 235 3 292 306 288 157 225 143 59 75 25 303 302 297 302 280 250 291 319 330 314 307 300 309 319 319 318 313 305 317 287 268 263 266 268 266
348 342 330 227 214 272 12 70 268 288 289 297 21 18 57 307 333 32 10 354 355 341 312 223 244 283 318 320 309 300 308 319 323 321 316 305 308 312 295 268 268 261 260 261
329 340 212 245 291 307 335 55 68 276 252 89 100 79 14 346 344 344 314 323 349 345 321 265 302 319 326 323 317 310 311 312 316 323 321 314 312 313 295 279 264 264 257 254
0 352 5 18 284 150 64 55 41 25 327 233 192 321 1 358 7 9 346 351 346 352 345 322 329 325 322 320 316 310 299 295 306 316 322 324 321 320 303 289 277 264 261 252
7 16 23 46 104 79 62 353 20 333 293 125 88 81 69 58 70 28 29 26 18 3 6 6 358 347 343 345 344 339 330 324 332 341 346 344 346 343 329 304 282 273 270 260
39 68 70 61 49 38 29 25 48 83 88 78 77 69 70 63 68 45 30 22 19 21 17 8 1 356 354 352 351 348 343 335 320 322 319 333 342 349 349 338 339 322 287 262
81 77 70 83 89 56 36 33 356 37 33 52 68 70 68 64 53 47 49 45 36 23 14 12 11 5 358 357 351 347 346 347 345 340 339 342 339 330 327 327 333 333 337 327
37 35 57 75 84 134 126 133 28 18 349 99 82 65 64 59 54 53 53 38 37 30 26 25 21 15 15 14 9 5 356 346 340 339 342 342 342 336 342 344 349 339 336 335